[[{"header":{"parameterUnit":"m.s-1","parameterCategory":1,"la1":30.2991,"la2":30.254,"lo1":-89.0895,"lo2":-89.0444,"dy":0.0017,"dx":0.0017,"nx":28,"ny":28,"refTime":"2024-05-03T21:00:00:Z","depth":0,"parameterNumber":2,"parameterNumberName":"U-component_of_WINDS"},"data":[0,0,0,0,0,0,0,0,0,0,0,0,0,0,0,0,0,0,0,0,0,0,0,0,0,0,0,0,0,0,0,0,0,0,0,0,0,0,0,0,0,0,0,0,0,0,0,0,0,0,0,0,0,0,0,0,0,0,-0.5293,-0.5293,0,-0.5287,-0.5287,-0.5287,-0.5279,-0.5279,-0.5279,-0.5279,-0.5273,-0.5273,-0.5272,0,0,0,0,0,0,0,0,0,0,0,0,0,-0.5298,-0.5298,-0.5293,-0.5293,-0.5293,-0.5287,-0.5287,-0.5287,-0.5279,-0.5279,-0.5279,-0.5279,-0.5273,-0.5273,-0.5272,0,0,0,0,0,0,0,0,0,0,0,0,0,-0.5294,-0.5298,-0.5293,-0.5288,-0.5288,-0.5287,-0.5287,-0.5287,-0.5279,-0.5279,-0.5279,-0.5279,-0.5273,-0.5273,-0.5272,-0.5276,0,0,-0.5272,-0.5272,0,0,0,0,0,0,0,0,-0.5294,-0.5294,-0.5289,-0.5289,-0.5288,-0.5284,-0.5287,-0.5284,-0.5279,-0.5283,-0.5279,-0.5279,-0.5276,-0.5276,-0.5275,-0.5276,-0.5276,-0.5272,-0.5272,-0.5272,-0.5272,0,0,0,0,0,0,0,-0.5295,-0.5294,-0.5291,-0.5289,-0.5288,-0.5287,-0.5286,-0.5286,-0.5281,-0.5282,-0.5282,-0.5281,-0.5276,-0.5276,-0.5275,-0.5275,-0.5272,-0.5272,-0.5272,-0.5272,-0.528,-0.528,0,0,0,0,0,0,-0.5296,-0.5294,-0.5291,-0.5291,-0.5291,-0.5287,-0.5286,-0.5285,-0.5281,-0.528,-0.5281,-0.5281,-0.5276,-0.5275,-0.5275,-0.528,-0.5272,-0.5272,-0.5272,-0.528,-0.528,-0.528,0,0,0,0,0,0,-0.5296,-0.5295,-0.5291,-0.5292,-0.5292,-0.5287,-0.5286,-0.5285,-0.5285,-0.528,-0.5279,-0.5282,-0.5276,-0.5275,-0.5276,-0.5279,-0.5272,-0.5272,-0.5279,-0.528,-0.528,-0.5289,0,0,0,0,0,0,-0.5296,-0.5295,-0.5296,-0.5293,-0.5292,-0.5292,-0.5287,-0.5285,-0.5285,-0.5284,-0.528,-0.5279,-0.5275,-0.5276,-0.5276,-0.5279,-0.5272,-0.5279,-0.528,-0.528,-0.5288,-0.5289,-0.529,0,0,0,0,0,-0.5296,-0.5299,-0.5297,-0.5296,-0.5293,-0.5293,-0.5292,-0.5288,-0.5285,-0.5286,-0.5283,-0.5279,-0.5279,-0.5277,-0.5276,-0.5279,-0.5279,-0.5279,-0.528,-0.5287,-0.5289,-0.529,0,0,0,0,0,0,-0.5303,-0.5298,-0.5296,-0.5297,-0.5295,-0.5291,-0.5292,-0.5289,-0.5288,-0.5288,-0.5282,-0.5282,-0.5284,-0.5281,-0.5279,-0.5283,-0.5278,-0.5279,-0.5284,-0.5286,-0.5287,-0.5287,-0.5272,0,0,0,0,0,-0.5304,-0.5304,-0.53,-0.5302,-0.5301,-0.5297,-0.5297,-0.5294,-0.5292,-0.5291,-0.5288,-0.5286,-0.5286,-0.5286,-0.5285,-0.5288,-0.5287,-0.529,-0.5291,-0.5292,-0.5292,-0.5295,-0.5296,-0.5282,-0.5282,-0.5282,0,0,-0.5307,-0.5305,-0.5305,-0.5303,-0.5302,-0.5302,-0.5297,-0.5297,-0.5297,-0.5291,-0.5292,-0.529,-0.5288,-0.529,-0.5291,-0.5288,-0.5296,-0.5293,-0.5293,-0.5293,-0.5295,-0.5297,-0.5298,-0.5283,-0.5282,-0.5282,0,0,-0.5314,-0.5312,-0.5313,-0.5312,-0.531,-0.5307,-0.5308,-0.5305,-0.5303,-0.5305,-0.53,-0.5301,-0.53,-0.5299,-0.5298,-0.5306,-0.5302,-0.5306,-0.5311,-0.5314,-0.5315,-0.5316,-0.5319,-0.532,-0.5306,-0.5306,-0.5306,0,-0.5318,-0.5318,-0.5314,-0.5315,-0.5315,-0.531,-0.5312,-0.5311,-0.5309,-0.5309,-0.5306,-0.5306,-0.5304,-0.5306,-0.5309,-0.5308,-0.5309,-0.5306,-0.5315,-0.5316,-0.5317,-0.5319,-0.5321,-0.5307,-0.5307,-0.5307,-0.5307,0,-0.5324,-0.5324,-0.5326,-0.5324,-0.5324,-0.5326,-0.5323,-0.5323,-0.5321,-0.5319,-0.532,-0.5318,-0.5317,-0.5318,-0.5315,-0.532,-0.5319,-0.5316,-0.5311,-0.5318,-0.5321,-0.5322,-0.5307,-0.5307,-0.5307,-0.5307,0,0,-0.5332,-0.533,-0.5331,-0.5331,-0.5329,-0.5329,-0.5331,-0.5331,-0.5331,-0.533,-0.5332,-0.5332,-0.533,-0.5329,-0.5326,-0.5328,-0.5335,-0.5325,-0.5325,-0.5327,-0.5342,-0.5344,-0.5345,-0.5333,-0.5334,-0.5334,-0.5342,0,-0.5338,-0.5341,-0.5338,-0.5342,-0.5343,-0.5339,-0.5341,-0.534,-0.5338,-0.5339,-0.5337,-0.5338,-0.5334,-0.5334,-0.5336,-0.5334,-0.5338,-0.5334,-0.5335,-0.5335,-0.5335,-0.5347,-0.5349,-0.5357,-0.5343,-0.5343,-0.5343,0,-0.5345,-0.5345,-0.5349,-0.5348,-0.5348,-0.5349,-0.535,-0.535,-0.535,-0.5349,-0.5349,-0.5346,-0.5348,-0.5344,-0.5347,-0.5344,-0.5345,-0.5344,-0.5344,-0.5344,-0.5339,-0.5347,-0.5359,-0.536,-0.5345,-0.5345,-0.5345,0,-0.5351,-0.5352,-0.5355,-0.5355,-0.5354,-0.5355,-0.5355,-0.5354,-0.5354,-0.5355,-0.5355,-0.5356,-0.5356,-0.5357,-0.5354,-0.5351,-0.5358,-0.5353,-0.5357,-0.5357,-0.5358,-0.5358,-0.5371,-0.5359,-0.5359,-0.5359,-0.5359,0,-0.5358,-0.536,-0.5358,-0.5359,-0.5362,-0.536,-0.5363,-0.5362,-0.5362,-0.5364,-0.536,-0.5362,-0.5359,-0.5361,-0.5359,-0.5362,-0.5362,-0.5362,-0.5361,-0.5362,-0.5362,-0.5362,-0.5361,-0.5359,-0.5359,-0.5359,-0.5359,0,-0.5365,-0.5364,-0.5366,-0.5366,-0.5365,-0.5368,-0.5367,-0.5369,-0.5368,-0.537,-0.537,-0.5369,-0.537,-0.5369,-0.537,-0.5369,-0.5373,-0.5372,-0.5374,-0.5373,-0.5377,-0.5377,-0.539,-0.5392,-0.5379,-0.5379,-0.5379,0,-0.5369,-0.5371,-0.5371,-0.5372,-0.5372,-0.5374,-0.5374,-0.5373,-0.5374,-0.5374,-0.5376,-0.5377,-0.5378,-0.5382,-0.5381,-0.5382,-0.5381,-0.5385,-0.5381,-0.5382,-0.5381,-0.5381,-0.5381,-0.5386,-0.5386,-0.5386,-0.5386,0,-0.5377,-0.5376,-0.5378,-0.5379,-0.538,-0.5381,-0.5382,-0.5383,-0.5381,-0.5383,-0.5385,-0.5386,-0.5388,-0.539,-0.5391,-0.5391,-0.5388,-0.5388,-0.5389,-0.5389,-0.539,-0.539,-0.5376,-0.5387,-0.5387,-0.5387,-0.5387,-0.5387,-0.5383,-0.5385,-0.5385,-0.5387,-0.5388,-0.5389,-0.5391,-0.539,-0.5392,-0.5394,-0.5393,-0.5395,-0.5396,-0.5398,-0.5398,-0.54,-0.5398,-0.54,-0.54,-0.54,-0.5401,-0.539,-0.5401,-0.54,-0.54,-0.54,-0.54,0,-0.539,-0.5391,-0.5393,-0.5394,-0.5396,-0.5394,-0.5395,-0.5397,-0.5399,-0.54,-0.5402,-0.5405,-0.5407,-0.5407,-0.5409,-0.5411,-0.541,-0.5412,-0.5411,-0.5411,-0.5403,-0.5402,-0.5412,-0.5412,-0.5412,-0.5412,-0.5412,-0.5412,-0.5394,-0.5398,-0.5398,-0.5402,-0.5402,-0.5405,-0.5406,-0.5407,-0.5408,-0.5412,-0.5414,-0.5414,-0.5415,-0.5417,-0.5419,-0.5419,-0.542,-0.5422,-0.5422,-0.5413,-0.5412,-0.5411,-0.541,-0.5422,-0.5422,-0.543,-0.543,-0.543]},{"header":{"parameterUnit":"m.s-1","parameterCategory":1,"la1":30.2991,"la2":30.254,"lo1":-89.0895,"lo2":-89.0444,"dy":0.0017,"dx":0.0017,"nx":28,"ny":28,"refTime":"2024-05-03T21:00:00:Z","depth":0,"parameterNumber":3,"parameterNumberName":"V-component_of_WINDS"},"data":[0,0,0,0,0,0,0,0,0,0,0,0,0,0,0,0,0,0,0,0,0,0,0,0,0,0,0,0,0,0,0,0,0,0,0,0,0,0,0,0,0,0,0,0,0,0,0,0,0,0,0,0,0,0,0,0,0,0,2.6574,2.6574,0,2.6557,2.6557,2.6556,2.6503,2.6502,2.6501,2.6499,2.6483,2.6484,2.6485,0,0,0,0,0,0,0,0,0,0,0,0,0,2.6561,2.6562,2.6574,2.6574,2.6573,2.6557,2.6557,2.6556,2.6503,2.6502,2.65,2.6499,2.6483,2.6484,2.6485,0,0,0,0,0,0,0,0,0,0,0,0,0,2.6558,2.6562,2.6574,2.6545,2.6542,2.6557,2.6557,2.6556,2.6503,2.6502,2.65,2.6498,2.6483,2.6484,2.6485,2.6527,0,0,2.6488,2.6489,0,0,0,0,0,0,0,0,2.6558,2.6558,2.6549,2.6547,2.6544,2.653,2.6546,2.6546,2.6504,2.6518,2.6499,2.6497,2.6501,2.65,2.6501,2.6526,2.6525,2.6488,2.6489,2.6489,2.649,0,0,0,0,0,0,0,2.6559,2.6559,2.6567,2.6549,2.6546,2.6533,2.6531,2.6546,2.652,2.6517,2.6513,2.6511,2.6499,2.65,2.65,2.6525,2.6488,2.6489,2.649,2.649,2.6584,2.6586,0,0,0,0,0,0,2.6563,2.6559,2.6568,2.6566,2.6547,2.6535,2.6532,2.6536,2.6519,2.6515,2.6513,2.6509,2.6499,2.6499,2.6499,2.6547,2.6489,2.649,2.6491,2.6582,2.6585,2.6587,0,0,0,0,0,0,2.6563,2.6564,2.6568,2.6562,2.6561,2.6537,2.6542,2.6537,2.6538,2.6516,2.6512,2.6519,2.6498,2.6498,2.652,2.6546,2.6491,2.6492,2.658,2.6583,2.6586,2.6644,0,0,0,0,0,0,2.6563,2.6564,2.658,2.6563,2.6562,2.6589,2.6544,2.6538,2.654,2.6534,2.6521,2.6517,2.6496,2.6519,2.6521,2.6546,2.6492,2.6578,2.6582,2.6585,2.664,2.6648,2.6656,0,0,0,0,0,2.6562,2.6597,2.6581,2.6582,2.6581,2.6591,2.6591,2.6566,2.6542,2.6558,2.6544,2.6517,2.6543,2.6522,2.6524,2.655,2.6576,2.6581,2.6585,2.6636,2.6647,2.6656,0,0,0,0,0,0,2.6618,2.6594,2.6576,2.6606,2.6601,2.6582,2.6601,2.6578,2.658,2.6575,2.6544,2.6542,2.6569,2.6561,2.6539,2.6589,2.6555,2.656,2.6593,2.6603,2.6611,2.6613,2.6493,0,0,0,0,0,2.6634,2.6644,2.6622,2.6651,2.6649,2.6626,2.6629,2.6611,2.6604,2.6602,2.659,2.6585,2.6592,2.6597,2.6602,2.6638,2.6635,2.6657,2.6665,2.6672,2.6677,2.6695,2.6705,2.6601,2.6601,2.6601,0,0,2.6666,2.6655,2.6663,2.6662,2.6656,2.6667,2.6624,2.6638,2.6646,2.6604,2.6625,2.6616,2.6608,2.6638,2.665,2.6633,2.6704,2.6677,2.6683,2.6684,2.6701,2.6711,2.6719,2.6604,2.6603,2.6603,0,0,2.6732,2.6724,2.6747,2.6741,2.6733,2.6717,2.6722,2.6707,2.6699,2.6719,2.6688,2.6697,2.671,2.6706,2.6706,2.677,2.6746,2.6773,2.6815,2.6834,2.6842,2.6849,2.6872,2.6881,2.6777,2.6777,2.6777,0,2.6774,2.6789,2.6762,2.6778,2.6778,2.674,2.6763,2.676,2.6753,2.6755,2.6735,2.675,2.6742,2.6771,2.6786,2.6787,2.6793,2.6774,2.6843,2.685,2.6856,2.6878,2.6887,2.6781,2.678,2.678,2.678,0,2.6841,2.6853,2.6872,2.6867,2.687,2.6889,2.6865,2.6871,2.6853,2.6839,2.686,2.685,2.6852,2.6857,2.6839,2.6883,2.6872,2.6848,2.6813,2.687,2.689,2.6898,2.6785,2.6784,2.6783,2.6782,0,0,2.6942,2.692,2.6928,2.6925,2.6912,2.6921,2.6939,2.6941,2.6947,2.6944,2.6959,2.697,2.6948,2.6948,2.6929,2.6945,2.6997,2.6919,2.6918,2.6934,2.7045,2.7064,2.7074,2.6981,2.6982,2.6984,2.7046,0,2.7004,2.7033,2.7009,2.7043,2.7053,2.7017,2.7033,2.7027,2.7015,2.7022,2.7009,2.7017,2.6987,2.6987,2.7001,2.6988,2.7019,2.6983,2.6995,2.6996,2.6998,2.7084,2.7104,2.7163,2.7054,2.7055,2.7056,0,2.708,2.708,2.7115,2.71,2.7104,2.7119,2.7118,2.7126,2.7119,2.7109,2.7109,2.7085,2.7103,2.7068,2.7092,2.7068,2.7071,2.7065,2.7067,2.7067,2.703,2.7088,2.7182,2.7191,2.7068,2.7067,2.7066,0,2.715,2.7159,2.7181,2.718,2.7163,2.7174,2.7168,2.7159,2.7162,2.7162,2.7163,2.7166,2.7167,2.717,2.7148,2.7125,2.7175,2.7138,2.7168,2.7168,2.718,2.718,2.7276,2.7182,2.7182,2.7181,2.7181,0,2.7223,2.7246,2.7212,2.7226,2.7251,2.7223,2.7248,2.7238,2.723,2.7242,2.7211,2.7222,2.7193,2.7201,2.7184,2.7207,2.7208,2.72,2.7196,2.7203,2.7204,2.7206,2.7201,2.7184,2.7183,2.7183,2.7182,0,2.7305,2.7284,2.7305,2.7288,2.7284,2.7303,2.7288,2.73,2.7286,2.73,2.7302,2.728,2.7289,2.7267,2.7272,2.7261,2.7293,2.7282,2.7296,2.7292,2.7323,2.732,2.7424,2.7436,2.7334,2.7335,2.7336,0,2.7353,2.7369,2.7353,2.7359,2.7354,2.7363,2.7365,2.7338,2.7342,2.7336,2.7349,2.7355,2.7358,2.7373,2.7358,2.7362,2.7351,2.7387,2.7351,2.7359,2.7352,2.7351,2.7353,2.7394,2.7396,2.7397,2.7397,0,2.744,2.7428,2.7433,2.7434,2.7438,2.7438,2.7435,2.7442,2.7413,2.7419,2.7427,2.743,2.7435,2.7442,2.7442,2.7436,2.7413,2.7409,2.7416,2.7424,2.7431,2.7428,2.7316,2.7406,2.7406,2.7405,2.7404,2.7404,2.7506,2.752,2.7511,2.7517,2.7512,2.7511,2.7521,2.7508,2.7514,2.7516,2.75,2.7512,2.7504,2.7503,2.7499,2.7508,2.7492,2.7502,2.7505,2.7508,2.7513,2.743,2.7508,2.7508,2.7508,2.7507,2.7507,0,2.7592,2.7584,2.7591,2.7588,2.7593,2.757,2.7566,2.7572,2.7582,2.7577,2.7581,2.7591,2.7597,2.7582,2.7586,2.7596,2.7585,2.7598,2.7597,2.7596,2.7527,2.7521,2.7607,2.7607,2.7607,2.7607,2.7607,2.7607,2.7637,2.7659,2.7646,2.7665,2.7657,2.7668,2.7668,2.7667,2.7662,2.7674,2.7679,2.7669,2.766,2.7663,2.7668,2.7663,2.7667,2.7683,2.7675,2.7611,2.7601,2.7592,2.7586,2.7684,2.7684,2.7744,2.7744,2.7745]}]]